Location: Argonnex
(45.9500°N, 6.1333°E)
Time: 17:32:02
(UTC+00:00)

Okean O Rocket - Pass Details

Date: 28 January 2023
Orbit: 620 x 643 km, 98.1° (Epoch: 30 March)

Event Time Altitude Azimuth Distance (km) Brightness Sun altitude
Exits shadow 18:47:18 20° 168° (SSE) 1,459 3.3 -23.0°
Maximum altitude 18:50:18 85° 254° (WSW) 640 1.5 -23.6°
Drops below altitude 10° 18:54:44 10° 345° (NNW) 2,029 4.3 -24.3°
Sets 18:56:58 0° 347° (NNW) 2,946 5.2 -24.7°
